Weather History for 42348 - October, 2013

Change the Weather History Date:

Wednesday, October 16, 2013

  Actual Average Record
Temperature  
Mean Temperature 82 °F -  
Max Temperature 94 °F - - ()
Min Temperature 70 °F - - ()
Cooling Degree Days 17    
Growing Degree Days 32 (Base 50)    
Moisture  
Dew Point 64 °F    
Average Humidity 56    
Maximum Humidity 78    
Minimum Humidity 22    
Precipitation  
Precipitation 0.00 in - - ()
Sea Level Pressure  
Sea Level Pressure 29.86 in    
Wind  
Wind Speed 2 mph ()    
Max Wind Speed 7 mph    
Max Gust Speed -    
Visibility 1.9 miles    
Events      
T = Trace of Precipitation, MM = Missing Value Source: Averaged Metar Reports

Daily Weather History Graph

Daily Weather History Graph

Search for Another Location

Airport or City:

Trip Planner

Search our weather history database for the weather conditions in past years. The results will help you decide how hot, cold, wet, or windy it might be!

Date:

Astronomy

Oct. 16, 2013 Rise Set
Actual Time 6:26 AM IST 5:57 PM IST
Civil Twilight 6:03 AM IST 6:20 PM IST
Nautical Twilight 5:36 AM IST 6:47 PM IST
Astronomical Twilight 5:09 AM IST 7:14 PM IST
Moon 4:09 PM IST (10/16) 3:39 AM IST (10/16)
Length of Visible Light 12h 17m
Length of Day
11h 30m
Waxing Gibbous, 91% of the Moon is Illuminated
Oct 16
Waxing Gibbous
Oct 19
Full
Oct 27
Last Quarter
Nov 3
New
Nov 10
First Quarter

Hourly Weather History & Observations

Time (IST) Temp. Heat Index Dew Point Humidity Pressure Visibility Wind Dir Wind Speed Gust Speed Precip Events Conditions
12:00 AM 75.2 °F - 66.2 °F 73% 29.89 in 1.6 mi Calm Calm - N/A   Haze
1:00 AM 75.2 °F - 66.2 °F 73% 29.89 in 1.6 mi Calm Calm - N/A   Haze
2:00 AM 73.4 °F - 66.2 °F 78% 29.86 in 1.6 mi Calm Calm - N/A   Haze
2:30 AM 73 °F - 67 °F 75% 29.83 in 1 mi Calm Calm - -   Haze
3:00 AM 73.4 °F - 66.2 °F 78% 29.86 in 1.6 mi Calm Calm - N/A   Haze
4:00 AM 73.4 °F - 66.2 °F 78% 29.86 in 1.6 mi Calm Calm - N/A   Haze
5:00 AM 71.6 °F - 64.4 °F 78% 29.86 in 1.6 mi Calm Calm - N/A   Haze
5:30 AM 72 °F - 65 °F 74% 29.82 in 1 mi Calm Calm - -   Haze
6:00 AM 71.6 °F - 64.4 °F 78% 29.89 in 1.6 mi Calm Calm - N/A   Haze
7:00 AM 71.6 °F - 64.4 °F 78% 29.89 in 1.6 mi Calm Calm - N/A   Haze
8:00 AM 78.8 °F - 68.0 °F 69% 29.92 in 1.6 mi Calm Calm - N/A   Haze
8:30 AM 80 °F - 68 °F 59% 29.86 in 1 mi WNW 2.3 mph - -   Haze
10:00 AM 84.2 °F 86.6 °F 66.2 °F 55% 29.95 in 1.9 mi SW 4.6 mph - N/A   Haze
11:00 AM 87.8 °F 89.4 °F 64.4 °F 46% 29.95 in 1.9 mi West 5.8 mph - N/A   Haze
12:00 PM 89.6 °F 90.1 °F 62.6 °F 40% 29.89 in 2.5 mi WNW 6.9 mph - N/A   Haze
1:00 PM 91.4 °F 91.4 °F 60.8 °F 36% 29.86 in 2.5 mi WNW 6.9 mph - N/A   Haze
2:00 PM 91.4 °F 90.7 °F 59.0 °F 34% 29.86 in 2.5 mi Variable 6.9 mph - N/A   Haze
2:30 PM 93 °F - 62 °F 25% 29.74 in 2 mi WNW 6.9 mph - -   Haze
3:00 PM 93.2 °F 93.3 °F 60.8 °F 34% 29.83 in 2.5 mi Variable 4.6 mph - N/A   Haze
4:00 PM 93.2 °F 92.6 °F 59.0 °F 32% 29.83 in 2.5 mi WNW 5.8 mph - N/A   Haze
5:00 PM 91.4 °F 90.7 °F 59.0 °F 34% 29.80 in 2.5 mi Variable 3.5 mph - N/A   Haze
5:30 PM 92 °F - 58 °F 22% 29.72 in 2 mi WNW 5.8 mph - -   Haze
6:00 PM 87.8 °F 87.6 °F 60.8 °F 40% 29.83 in 2.2 mi WNW 3.5 mph - N/A   Haze
8:00 PM 82.4 °F 83.9 °F 64.4 °F 54% 29.86 in 1.9 mi Calm Calm - N/A   Haze
8:30 PM 82 °F - 65 °F 46% 29.79 in 2 mi Calm Calm - -   Haze
9:00 PM 80.6 °F 82.7 °F 66.2 °F 61% 29.89 in 1.9 mi Calm Calm - N/A   Haze
10:00 PM 78.8 °F - 64.4 °F 61% 29.89 in 1.9 mi East 4.6 mph - N/A   Haze
11:00 PM 77.0 °F - 64.4 °F 65% 29.89 in 1.9 mi Calm Calm - N/A   Haze
11:30 PM 77 °F - 64 °F 56% 29.82 in 2 mi Calm Calm - -   Haze